Weather History for Wallops Island, VA

Change the Weather History Date:

Monday, October 14, 2013

  Actual Average Record
Temperature  
Mean Temperature 64 °F 60 °F  
Max Temperature 71 °F 69 °F 85 °F (1990)
Min Temperature 57 °F 51 °F 34 °F (1988)
Degree Days  
Heating Degree Days 1    
Month to date heating degree days 5  
Since 1 July heating degree days 27  
Cooling Degree Days 0    
Month to date cooling degree days 81  
Year to date cooling degree days 1509  
Growing Degree Days 14 (Base 50)    
Moisture  
Dew Point 58 °F    
Average Humidity 80    
Maximum Humidity 93    
Minimum Humidity 66    
Precipitation  
Precipitation 0.00 in 0.10 in 0.96 in (2010)
Month to date precipitation 4.14 1.44  
Year to date precipitation 34.80 32.81  
Sea Level Pressure  
Sea Level Pressure 30.24 in    
Wind  
Wind Speed 13 mph (NE)    
Max Wind Speed 23 mph    
Max Gust Speed 30 mph    
Visibility 10 miles    
Events      
T = Trace of Precipitation, MM = Missing Value Source: NWS Daily Summary

Daily Weather History Graph

Daily Weather History Graph

Search for Another Location

Airport:

Trip Planner

Search our weather history database for the weather conditions in past years. The results will help you decide how hot, cold, wet, or windy it might be!

Date:

Astronomy

Oct. 14, 2013 Rise Set
Actual Time 7:09 AM EDT 6:25 PM EDT
Civil Twilight 6:43 AM EDT 6:51 PM EDT
Nautical Twilight 6:12 AM EDT 7:22 PM EDT
Astronomical Twilight 5:42 AM EDT 7:52 PM EDT
Moon 3:49 PM EDT (10/14) 2:27 AM EDT (10/14)
Length of Visible Light 12h 08m
Length of Day
11h 15m
Waxing Gibbous, 79% of the Moon is Illuminated
Oct 14
Waxing Gibbous
Oct 18
Full
Oct 26
Last Quarter
Nov 3
New
Nov 10
First Quarter

Hourly Weather History & Observations

Time (EDT) Temp. Dew Point Humidity Pressure Visibility Wind Dir Wind Speed Gust Speed Precip Events Conditions
12:29 AM 64.9 °F 61.0 °F 87% 30.24 in 10.0 mi ENE 18.4 mph - N/A   Overcast
12:54 AM 64.9 °F 60.1 °F 84% 30.23 in 10.0 mi NE 16.1 mph 23.0 mph N/A   Overcast
1:54 AM 64.9 °F 60.1 °F 84% 30.23 in 10.0 mi ENE 13.8 mph 25.3 mph N/A   Overcast
2:54 AM 64.9 °F 60.1 °F 84% 30.23 in 10.0 mi NE 15.0 mph 24.2 mph N/A   Overcast
3:27 AM 64.9 °F 60.1 °F 84% 30.23 in 10.0 mi NE 13.8 mph - N/A   Overcast
3:54 AM 64.9 °F 60.1 °F 84% 30.22 in 10.0 mi NNE 11.5 mph - N/A   Overcast
4:54 AM 64.0 °F 60.1 °F 87% 30.23 in 10.0 mi NE 10.4 mph - N/A   Overcast
5:54 AM 64.0 °F 60.1 °F 87% 30.24 in 10.0 mi NE 9.2 mph - N/A   Overcast
6:54 AM 64.9 °F 59.0 °F 81% 30.25 in 10.0 mi NE 15.0 mph - N/A   Overcast
7:06 AM 64.0 °F 59.0 °F 84% 30.26 in 10.0 mi NNE 9.2 mph 18.4 mph N/A   Overcast
7:17 AM 64.0 °F 59.0 °F 84% 30.25 in 10.0 mi North 8.1 mph - N/A   Overcast
7:54 AM 63.0 °F 59.0 °F 87% 30.26 in 10.0 mi North - - N/A   Overcast
8:41 AM 64.0 °F 59.0 °F 84% 30.27 in 10.0 mi North 8.1 mph - N/A   Overcast
8:54 AM 64.0 °F 59.0 °F 84% 30.27 in 10.0 mi North - - N/A   Overcast
9:54 AM 66.0 °F 60.1 °F 81% 30.27 in 10.0 mi NE 11.5 mph - N/A   Overcast
10:54 AM 70.0 °F 59.0 °F 68% 30.25 in 10.0 mi NE 20.7 mph 26.5 mph N/A   Overcast
11:54 AM 70.0 °F 60.1 °F 71% 30.25 in 10.0 mi ENE 19.6 mph 26.5 mph N/A   Overcast
12:49 PM 71.6 °F 60.8 °F 69% 30.25 in 10.0 mi ENE 20.7 mph - N/A   Scattered Clouds
12:54 PM 70.0 °F 60.1 °F 71% 30.25 in 10.0 mi ENE 19.6 mph 27.6 mph N/A   Scattered Clouds
1:54 PM 69.1 °F 59.0 °F 70% 30.22 in 10.0 mi ENE 18.4 mph - N/A   Scattered Clouds
2:54 PM 70.0 °F 59.0 °F 68% 30.21 in 10.0 mi ENE 19.6 mph - N/A   Partly Cloudy
3:54 PM 69.1 °F 57.9 °F 68% 30.21 in 10.0 mi ENE 20.7 mph - N/A   Clear
4:54 PM 66.9 °F 55.9 °F 68% 30.21 in 10.0 mi ENE 20.7 mph 26.5 mph N/A   Clear
5:54 PM 64.9 °F 55.9 °F 73% 30.22 in 10.0 mi ENE 15.0 mph - N/A   Partly Cloudy
6:54 PM 62.1 °F 55.9 °F 80% 30.23 in 10.0 mi NNE 8.1 mph - N/A   Clear
7:54 PM 60.1 °F 55.9 °F 86% 30.22 in 10.0 mi North 5.8 mph - N/A   Clear
8:54 PM 59.0 °F 55.0 °F 87% 30.22 in 10.0 mi North 4.6 mph - N/A   Clear
9:54 PM 57.9 °F 55.0 °F 90% 30.22 in 10.0 mi NNE 8.1 mph - N/A   Clear
10:54 PM 57.9 °F 55.0 °F 90% 30.22 in 10.0 mi North 8.1 mph - N/A   Clear
11:54 PM 57.0 °F 54.0 °F 89% 30.21 in 10.0 mi North 8.1 mph - N/A   Clear